Regional Weather Roundup
Issued by NWS

Home | Current Version | Previous Version | Text Only | Print | Product List | Glossary On
Versions: 1 2 3 4 5 6 7 8 9 10 11 12 13 14 15 16 17 18 19 20 21 22 23 24 25 26 27 28 29 30 31 32 33 34 35 36 37 38 39 40 41 42 43 44 45 46 47 48 49 50
000
ASUS44 KEWX 041411
RWRTX
SOUTH TEXAS REGIONAL WEATHER ROUNDUP
NATIONAL WEATHER SERVICE AUSTIN/SAN ANTONIO TX
900 AM CDT SAT JUL 04 2015

NOTE: "FAIR" INDICATED FEW OR NO CLOUDS BELOW 12,000 FEET WITH NO
SIGNIFICANT WEATHER AND/OR OBSTRUCTIONS TO VISIBILITY.

* - THESE STATIONS ARE NOT NWS OR FAA STATIONS...AND ARE NOT SUBJECT
    TO NWS AND FAA QUALITY CONTROL.

TXZ171-172-183>190-041500-
TEXAS HILL COUNTRY AND EDWARDS PLATEAU

CITY           SKY/WX    TMP DP  RH WIND       PRES   REMARKS
JUNCTION       PTSUNNY   78  70  76 S7        30.03R
*LLANO         SUNNY     81  72  74 S9        30.06R
BURNET         PTSUNNY   77  71  82 S10       30.05S
*HORSESHOE BAY MOSUNNY   80  72  77 S6        30.03R
*KERRVILLE     CLOUDY    76  73  87 S13       30.05R
*FREDERICKSBRG CLOUDY    76  69  79 S10G16    30.05R
*ROCKSPRINGS   PTSUNNY   73  70  88 SE9       30.08R HAZE
*BOERNE STAGE  CLOUDY    73  70  88 S10       30.05R
*CASTROVILLE   CLOUDY    78  74  88 SE14      30.02S
HONDO          CLOUDY    77  73  87 S12       30.03R
*UVALDE        CLOUDY    76  73  88 SE13      30.00S
DEL RIO        CLOUDY    76  71  85 SE12      29.97R
LAUGHLIN AFB   CLOUDY    76  73  91 SE10      29.98R
CARRIZO SPRGS  MOSUNNY   77  72  83 SE10      29.96R
$$

TXZ173-191>194-202-209-217>225-228-041500-
CENTRAL AND SOUTH CENTRAL TEXAS

CITY           SKY/WX    TMP DP  RH WIND       PRES   REMARKS
GEORGETOWN     PTSUNNY   81  72  74 S12       30.01R
AUSTIN/BERGSTM PTSUNNY   79  75  87 S15       30.01S
AUSTIN/MABRY     N/A     79  74  84 MISG      30.02R
*AUSTIN/EXEC   PTSUNNY   79  75  89 S7        30.03R
*LAGO VISTA    CLOUDY    77  72  84 S6        30.05R
SAN MARCOS     PTSUNNY   79  73  83 S8        30.03R
NEW BRAUNFELS  CLOUDY    79  75  87 S12       30.01R
RANDOLPH AFB   DRIZZLE   79  73  83 S10       30.02R
PT SAN ANTONIO CLOUDY    79  74  85 SE15      30.00R
SAN ANTONIO    PTSUNNY   81  74  79 SE12      30.02R
STINSON FIELD  CLOUDY    80  75  84 SE8       29.99R
*PLEASANTON    PTSUNNY   79  74  84 SE9       30.00R
*LA GRANGE     PTSUNNY   83  78  87 S13       30.00S HX  92
*GIDDINGS      PTSUNNY   79  74  85 SW8       30.06R
*GONZALES      CLOUDY    80  79  96 S8        30.01R
$$

TXZ163>164-176>182-195>201-210>213-226-227-235-041500-
SOUTHEAST TEXAS

CITY           SKY/WX    TMP DP  RH WIND       PRES   REMARKS
COLLEGE STN    CLOUDY    80  76  87 S7        30.03R
*BRYAN         CLOUDY    79  76  90 SW12G17   30.05R
*CALDWELL      MOSUNNY   79  79 100 S10       30.06R
*CROCKETT      MOSUNNY   81  81 100 SW8       30.06R HX  91
*BRENHAM       CLOUDY    81  78  92 S7        30.03S
HUNTSVILLE     PTSUNNY   81  76  84 S12       30.03R
CONROE         PTSUNNY   81  75  82 SW6       30.04R
HOUSTON BUSH   PTSUNNY   83  77  82 S8        30.03R HX  92
HOUSTON HOBBY  MOSUNNY   83  77  82 S7        30.02R HX  92
*HOUSTON SW AP SUNNY     73  71  91 S3        30.03R
PEARLAND       SUNNY     83  77  82 VRB5      30.04R HX  92
HOUSTON HOOKS  PTSUNNY   82  77  84 S6        30.03R HX  90
ELLINGTON FLD  PTSUNNY   81  77  89 S6        30.04R
SUGAR LAND     MOSUNNY   84  77  79 S9        30.02R HX  94
*HOUSTON EXEC  MOSUNNY   82  77  83 S10       30.04R HX  91
*CLEVELAND MUN SUNNY     81  78  90 S7        30.04S
*WHARTON       SUNNY     82  78  89 S5        30.03R HX  90
*COLUMBUS      PTSUNNY   81  78  91 S6        30.02R
$$

TXZ214>216-236>238-041500-
THE UPPER TEXAS COAST

CITY           SKY/WX    TMP DP  RH WIND       PRES   REMARKS
*ORANGE        MOSUNNY   84  80  87 SW8       30.05S HX  96
PORT ARTHUR    MOSUNNY   85  78  80 SW8       30.04R HX  96
GALVESTON      MOSUNNY   85  79  82 S10       30.04R HX  98
ANGLETON       SUNNY     85  77  77 S8        30.02R HX  95
*BAY CITY      PTSUNNY   83  80  88 S7        30.01S HX  96
PALACIOS       MOSUNNY   85  77  77 S9        30.00S HX  95
$$

TXZ229>234-239>247-041500-
TEXAS COASTAL BEND AND RIO GRANDE PLAINS

CITY           SKY/WX    TMP DP  RH WIND       PRES   REMARKS
VICTORIA       SUNNY     82  79  90 S7        30.01R HX  92
*BEEVILLE      MOSUNNY   81  81 100 S13       29.99S HX  94
ROCKPORT       MOSUNNY   85  77  77 S10       29.98R HX  95
*PORT ARANSAS  MOSUNNY   83  78  85 S8        29.98S HX  93
*PORT LAVACA   NOT AVBL
*INGLESIDE     SUNNY     83  78  83 S9        29.98S HX  92
CORPUS CHRISTI MOSUNNY   83  76  79 SE14      29.98R HX  91
CORPUS NAS     SUNNY     83  77  82 S13       29.98R HX  92
*ROBSTOWN      SUNNY     83  77  81 S12       29.98S HX  93
ALICE          SUNNY     82  75  79 MISG      29.97R
KINGSVILLE NAS SUNNY     83  76  79 SE13      29.97R HX  91
COTULLA        LGT RAIN  81  74  79 SE10      29.98R
*FAITH RANCH     N/A     79  73  83 SE9G18    29.96R
LAREDO         SUNNY     82  71  69 SE16      29.97S
$$

TXZ248>255-041500-
DEEP SOUTH TEXAS

CITY           SKY/WX    TMP DP  RH WIND       PRES   REMARKS
BROWNSVILLE    PTSUNNY   84  76  76 SE12      29.97R HX  93
PORT ISABEL    MOSUNNY   82  76  81 SE10      29.96S HAZE
*SOUTH PADRE   SUNNY     81  77  89 SW6       29.98R
HARLINGEN      MOSUNNY   83  77  82 S12       29.96R HX  92
*HEBBRONVILLE    N/A     79  73  81 SE13G18   29.98S
MCALLEN        SUNNY     82  74  76 SE18      29.95S
*WESLACO       MOSUNNY   81  74  80 S12       29.96R
FALFURRIAS     SUNNY     81  74  79 S12       29.97R
EDINBURG       SUNNY     81  75  81 SE10      29.97R
*ZAPATA        SUNNY     79  70  73 S13G20    29.95R
$$

TXZ213>215-236>238-242>244-246-247-251-254-255-041500-
CMAN STATIONS

STATION/POSITION TIME  TEMP    WIND        PRES    WAVE
                       AIR SEA DIR/SP/G            HT/PER
                 (UTC) (F)     (DEG/KT/KT) (MB)    (FT/S)
$$

GMZ080-GMZ150>470-041500-
OFFSHORE BUOY REPORTS

STATION/POSITION TIME  TEMP    WIND        PRES    WAVE
                       AIR SEA DIR/SP/G            HT/PER
                 (UTC) (F)     (DEG/KT/KT) (MB)    (FT/S)
$$



USA.gov is the U.S. government's official web portal to all federal, state and local government web resources and services.